Location: Newark
(46.3192°N, 6.0700°E)
Time: 11:35:31
(UTC+00:00)

N. Korean satellite - Visible Passes

Search period start: 16 October 2019 00:00
Search period end: 26 October 2019 00:00
Orbit: 455 x 508 km, 97.2° (Epoch: 15 October)

Date Brightness Start Highest point End Pass type
(mag) Time Alt. Az. Time Alt. Az. Time Alt. Az.
16 Oct 9.1 04:56:54 10° NE 04:59:59 27° E 05:03:05 10° SSE visible
17 Oct 10.1 04:32:31 10° ENE 04:34:31 14° E 04:36:32 10° SE visible
18 Oct 10.4 17:53:07 10° WSW 17:54:19 11° W 17:55:32 10° WNW visible
19 Oct 8.0 05:14:06 10° NNE 05:17:34 43° E 05:21:03 10° S visible
19 Oct 9.5 17:26:04 10° SSW 17:28:48 22° W 17:31:35 10° NW visible
20 Oct 9.5 04:49:15 10° NE 04:52:09 22° E 04:55:04 10° SSE visible
21 Oct 10.3 04:25:15 10° ENE 04:26:40 12° E 04:28:03 10° ESE visible
22 Oct 6.9 05:31:27 10° NNE 05:35:05 74° ESE 05:38:45 10° S visible
22 Oct 10.1 17:44:29 10° SW 17:46:24 14° W 17:48:20 10° WNW visible
23 Oct 8.5 05:06:21 10° NNE 05:09:44 35° E 05:13:08 10° SSE visible
23 Oct 9.0 17:17:55 10° SSW 17:20:55 27° W 17:23:56 10° NW visible
24 Oct 9.8 04:41:38 10° NE 04:44:17 19° E 04:46:56 10° SE visible
